Regional Weather Roundup
Issued by NWS

Home | Current Version | Previous Version | Text Only | Print | Product List | Glossary On
Versions: 1 2 3 4 5 6 7 8 9 10 11 12 13 14 15 16 17 18 19 20 21 22 23 24 25 26 27 28 29 30 31 32 33 34 35 36 37 38 39 40 41 42 43 44 45 46 47 48 49 50
103
ASUS43 KTOP 210208
RWRKS

WEATHER ROUNDUP FOR KANSAS
NATIONAL WEATHER SERVICE GOODLAND KS
900 PM CDT SAT JUL 20 2019

NOTE:  "FAIR" INDICATES FEW OR NO CLOUDS BELOW 12,000 FEET WITH NO
SIGNIFICANT WEATHER AND/OR OBSTRUCTIONS TO VISIBILITY.

KSZ001>006-013>018-027>032-041>047-210300-
NORTHWEST KANSAS

CITY           SKY/WX    TMP DP  RH WIND       PRES   REMARKS
GOODLAND         N/A    N/A N/A N/A MISG      29.97R
HAYS           CLEAR     91  66  43 S13       29.78R
HILL CITY      CLEAR     87  73  62 NE16G25   29.83R
RUSSELL        CLEAR     92  64  39 S13       29.77R
$$

KSZ061>065-074>080-084>089-210300-
SOUTHWEST KANSAS

CITY           SKY/WX    TMP DP  RH WIND       PRES   REMARKS
DODGE CITY     CLEAR     88  64  44 SE14      29.81S HAZE
ELKHART        MOCLDY    85  64  49 SW3       29.85R
GARDEN CITY    CLEAR     91  63  39 SE16      29.80R
GREAT BEND     CLEAR     88  67  49 SE8       29.79R
LIBERAL        CLEAR     90  61  37 SE18      29.80R
PRATT          CLEAR     93  57  29 S12       29.82S
$$

KSZ066>073-081>083-090>101-210300-
SOUTHEAST KANSAS

CITY           SKY/WX    TMP DP  RH WIND       PRES   REMARKS
CHANUTE        CLEAR     88  73  61 S9        29.84R HX  95
COFFEYVILLE    CLEAR     87  74  64 S8        29.84R HX  95
HUTCHINSON     CLEAR     91  62  37 S10       29.80R
MEDICINE LODGE   N/A     91  63  39 S12       29.80R
NEWTON           N/A     88  69  53 S13       29.82R
PARSONS        CLEAR     87  75  67 S7        29.84F HX  96
WICHITA INTL   PTCLDY    90  66  45 S13       29.81R
WICHITA JABRA  CLEAR     89  69  51 S12       29.81R
WICHITA MCCONL CLEAR     90  65  43 SE14      29.82R
WINFIELD       CLEAR     85  68  56 S8        29.85R
$$

KSZ007>012-019>026-033>040-048>060-102>105-210300-
NORTHEAST KANSAS

CITY           SKY/WX    TMP DP  RH WIND       PRES   REMARKS
CONCORDIA      CLEAR     88  76  67 SE3       29.77R HX  99
EMPORIA        CLEAR     86  74  67 S8        29.82R
LAWRENCE       CLEAR     90  75  61 S6        29.80R HX 100
MANHATTAN      CLEAR     88  74  63 CALM      29.77R HX  96
MARYSVILLE     CLEAR     88  79  74 E5        29.79R HX 102
OLATHE IND     CLEAR     86  74  67 S6        29.83R
OLATHE EXE     CLEAR     87  75  67 S7        29.82R HX  96
SALINA         CLEAR     90  66  45 S7        29.77R
TOPEKA BILLARD CLEAR     92  75  57 S10       29.79R HX 103
TOPEKA FORBES  CLEAR     90  73  57 S8        29.80R HX  98
$$




USA.gov is the U.S. government's official web portal to all federal, state and local government web resources and services.